sat.trackr.live / text

‹ back to catalog

STARLINK-5528

NORAD 56890 · 2023-083Q

PAYLOAD ACTIVE UNKNOWN

§ Identity

Operator
Country
US
Launch date
2023-06-12
Launch site
AFETR
Launch vehicle
Mass (kg)
RCS (m²)

Purposes: comms

External: N2YO · Heavens-Above · Gunter

§ Orbital elements

Epoch: 2026-09-20T03:58:12.592128Z

Period
94.27 min
Inclination
43.0029°
Eccentricity
0.0001114
Mean motion
15.27575333 rev/d
Perigee alt
482.3 km
Apogee alt
483.8 km
Semi-major
6,861.2 km
B*
1.1786e-6
RAAN
70.2465°
Arg perigee
258.4585°
Mean anomaly
101.6142°
Rev number
18,133

§ Raw data

STARLINK-55281 56890U 23083Q   26263.16542352 -.00000230  00000+0  11786-5 0  99942 56890  43.0029  70.2465 0001114 258.4585 101.6142 15.27575333181338

JSON: /api/v1/satellites/56890 · /tle

For live sub-satellite position, see the globe view (requires WebGL).

§ Visibility from observer

Set your observer location to see the next 7 days of passes ≥ 10°. The values pass through the URL so the page stays shareable.

No JS? Fill the form by hand. The geolocation button needs JavaScript.